EJU6839 LPPR-LPMA

Flight info

Callsign EJU6839
Flight time 1h 42m
Altitude 39000
Route N0445F390 ASMOV DCT DIRMA DCT LAMDI DCT MARUM DCT LIDRO
Aircraft A320/M-SDE3FGHIRWY/LB1

Departure

Time 2026-05-05 17:33
Airport Francisco de Sá Carneiro Airport (LPPR)

Arrival

Time 2026-05-05 19:15
Airport Cristiano Ronaldo International Airport (LPMA)
Time Latitude Longitude Altitude Speed Heading
2026-05-05 17:11 41.24023 -8.67635 236 ft 0 kts 259°
2026-05-05 17:28 41.24027 -8.67608 235 ft 4 kts 256°
2026-05-05 17:28 41.24035 -8.67574 239 ft 4 kts 245°
2026-05-05 17:29 41.24049 -8.67545 237 ft 4 kts 213°
2026-05-05 17:29 41.24063 -8.67538 238 ft 0 kts 169°
2026-05-05 17:31 41.24027 -8.67529 238 ft 6 kts 169°
2026-05-05 17:31 41.23988 -8.67520 238 ft 5 kts 175°
2026-05-05 17:32 41.23931 -8.67556 239 ft 13 kts 238°
2026-05-05 17:32 41.23908 -8.67701 228 ft 16 kts 258°
2026-05-05 17:32 41.23888 -8.67848 222 ft 14 kts 260°
2026-05-05 17:32 41.23932 -8.67897 221 ft 11 kts 348°
2026-05-05 17:33 41.24113 -8.67944 215 ft 64 kts 348°
2026-05-05 17:33 41.24849 -8.68139 213 ft 148 kts 343°
2026-05-05 17:33 41.25915 -8.68445 912 ft 163 kts 346°
2026-05-05 17:33 41.27111 -8.68766 1718 ft 187 kts 347°
2026-05-05 17:34 41.28446 -8.69112 2259 ft 209 kts 347°
2026-05-05 17:34 41.29977 -8.69506 2747 ft 234 kts 348°
2026-05-05 17:34 41.31618 -8.69930 3497 ft 245 kts 348°
2026-05-05 17:34 41.33306 -8.70366 4442 ft 249 kts 347°
2026-05-05 17:35 41.35021 -8.70809 5411 ft 252 kts 347°
2026-05-05 17:35 41.36740 -8.71332 6372 ft 255 kts 338°
2026-05-05 17:35 41.38221 -8.72572 7181 ft 259 kts 315°
2026-05-05 17:35 41.39170 -8.74662 8055 ft 267 kts 289°
2026-05-05 17:36 41.39290 -8.77125 8924 ft 278 kts 262°
2026-05-05 17:36 41.38488 -8.79494 9775 ft 290 kts 233°
2026-05-05 17:36 41.36953 -8.81324 10424 ft 306 kts 222°
2026-05-05 17:36 41.35225 -8.83155 10712 ft 329 kts 221°
2026-05-05 17:37 41.33393 -8.85074 11263 ft 339 kts 221°
2026-05-05 17:37 41.31529 -8.87024 11970 ft 343 kts 221°
2026-05-05 17:37 41.29648 -8.89000 12707 ft 347 kts 222°
2026-05-05 17:37 41.27743 -8.91005 13549 ft 352 kts 222°
2026-05-05 17:38 41.25819 -8.93027 14338 ft 354 kts 223°
2026-05-05 17:38 41.23880 -8.95073 15027 ft 358 kts 223°
2026-05-05 17:38 41.21924 -8.97139 15694 ft 361 kts 223°
2026-05-05 17:38 41.19952 -8.99225 16372 ft 364 kts 224°
2026-05-05 17:39 41.17964 -9.01323 17053 ft 367 kts 224°
2026-05-05 17:39 41.15957 -9.03440 17729 ft 370 kts 224°
2026-05-05 17:39 41.13931 -9.05574 18381 ft 373 kts 224°
2026-05-05 17:39 41.11891 -9.07722 18956 ft 376 kts 224°
2026-05-05 17:40 41.09833 -9.09886 19545 ft 378 kts 224°
2026-05-05 17:40 41.07763 -9.12059 20151 ft 381 kts 224°
2026-05-05 17:40 41.05680 -9.14242 20756 ft 383 kts 224°
2026-05-05 17:40 41.03583 -9.16438 21358 ft 385 kts 224°
2026-05-05 17:41 41.01477 -9.18646 21951 ft 388 kts 224°
2026-05-05 17:41 40.99354 -9.20867 22541 ft 390 kts 224°
2026-05-05 17:41 40.97220 -9.23096 23104 ft 392 kts 223°
2026-05-05 17:41 40.95072 -9.25339 23685 ft 394 kts 224°
2026-05-05 17:42 40.92917 -9.27589 23998 ft 396 kts 224°
2026-05-05 17:42 40.90755 -9.29845 24082 ft 395 kts 223°
2026-05-05 17:42 40.88594 -9.32093 24091 ft 395 kts 223°
2026-05-05 17:42 40.86431 -9.34337 24092 ft 395 kts 223°
2026-05-05 17:43 40.84267 -9.36587 24274 ft 398 kts 223°
2026-05-05 17:43 40.82092 -9.38852 24773 ft 399 kts 223°
2026-05-05 17:43 40.79906 -9.41126 25236 ft 401 kts 223°
2026-05-05 17:43 40.77738 -9.43377 25673 ft 402 kts 223°
2026-05-05 17:44 40.75533 -9.45662 26107 ft 404 kts 223°
2026-05-05 17:44 40.73316 -9.47956 26494 ft 406 kts 223°
2026-05-05 17:44 40.71088 -9.50260 26908 ft 408 kts 223°
2026-05-05 17:44 40.68851 -9.52574 27318 ft 410 kts 223°
2026-05-05 17:45 40.66604 -9.54898 27721 ft 412 kts 223°
2026-05-05 17:45 40.64347 -9.57230 28111 ft 414 kts 223°
2026-05-05 17:45 40.62091 -9.59551 28879 ft 403 kts 223°
2026-05-05 17:45 40.59931 -9.61760 30191 ft 383 kts 223°
2026-05-05 17:46 40.57876 -9.63858 31329 ft 363 kts 223°
2026-05-05 17:46 40.55929 -9.65849 32336 ft 349 kts 223°
2026-05-05 17:46 40.54033 -9.67798 32935 ft 345 kts 224°
2026-05-05 17:46 40.52146 -9.69747 33341 ft 345 kts 224°
2026-05-05 17:47 40.50254 -9.71703 33699 ft 347 kts 224°
2026-05-05 17:47 40.48354 -9.73662 34048 ft 347 kts 224°
2026-05-05 17:47 40.46471 -9.75597 34325 ft 349 kts 223°
2026-05-05 17:47 40.44551 -9.77566 34575 ft 351 kts 223°
2026-05-05 17:48 40.42618 -9.79547 34826 ft 354 kts 223°
2026-05-05 17:48 40.40672 -9.81538 35048 ft 356 kts 223°
2026-05-05 17:48 40.38708 -9.83545 35261 ft 359 kts 223°
2026-05-05 17:48 40.36728 -9.85564 35424 ft 363 kts 223°
2026-05-05 17:49 40.34723 -9.87610 35548 ft 368 kts 223°
2026-05-05 17:49 40.32696 -9.89682 35664 ft 372 kts 223°
2026-05-05 17:49 40.30643 -9.91782 35799 ft 376 kts 223°
2026-05-05 17:49 40.28565 -9.93904 35922 ft 381 kts 223°
2026-05-05 17:50 40.26460 -9.96047 36057 ft 385 kts 222°
2026-05-05 17:50 40.24333 -9.98208 36187 ft 388 kts 222°
2026-05-05 17:50 40.22190 -10.00381 36316 ft 392 kts 222°
2026-05-05 17:50 40.20025 -10.02574 36437 ft 395 kts 222°
2026-05-05 17:51 40.17838 -10.04787 36575 ft 399 kts 222°
2026-05-05 17:51 40.15638 -10.07011 36706 ft 402 kts 222°
2026-05-05 17:51 40.13419 -10.09257 36837 ft 404 kts 222°
2026-05-05 17:51 40.11189 -10.11512 36970 ft 407 kts 222°
2026-05-05 17:52 40.08943 -10.13778 37105 ft 409 kts 222°
2026-05-05 17:52 40.06715 -10.16024 37237 ft 411 kts 221°
2026-05-05 17:52 40.04444 -10.18307 37371 ft 413 kts 221°
2026-05-05 17:52 40.02162 -10.20601 37480 ft 415 kts 221°
2026-05-05 17:53 39.99875 -10.22906 37619 ft 416 kts 221°
2026-05-05 17:53 39.97581 -10.25221 37759 ft 417 kts 221°
2026-05-05 17:53 39.95282 -10.27538 37887 ft 419 kts 221°
2026-05-05 17:53 39.92974 -10.29862 38058 ft 419 kts 221°
2026-05-05 17:54 39.90665 -10.32184 38221 ft 420 kts 221°
2026-05-05 17:54 39.88349 -10.34504 38396 ft 420 kts 221°
2026-05-05 17:54 39.86032 -10.36819 38568 ft 420 kts 221°
2026-05-05 17:54 39.83717 -10.39131 38722 ft 420 kts 221°
2026-05-05 17:55 39.81398 -10.41443 38870 ft 420 kts 221°
2026-05-05 17:55 39.79082 -10.43752 39013 ft 419 kts 221°
2026-05-05 17:55 39.76766 -10.46062 39094 ft 419 kts 221°
2026-05-05 17:56 39.72120 -10.50700 39119 ft 421 kts 221°
2026-05-05 17:56 39.67479 -10.55317 39118 ft 420 kts 221°
2026-05-05 17:57 39.62841 -10.59927 39132 ft 420 kts 221°
2026-05-05 17:57 39.58194 -10.64529 39121 ft 421 kts 221°
2026-05-05 17:58 39.53541 -10.69129 39112 ft 421 kts 221°
2026-05-05 17:58 39.48889 -10.73725 39128 ft 420 kts 221°
2026-05-05 17:59 39.44243 -10.78309 39136 ft 420 kts 221°
2026-05-05 17:59 39.39596 -10.82888 39141 ft 420 kts 221°
2026-05-05 18:00 39.35732 -10.86689 39145 ft 420 kts 221°
2026-05-05 18:00 39.30301 -10.92028 39151 ft 420 kts 221°
2026-05-05 18:01 39.25683 -10.96550 39138 ft 419 kts 221°
2026-05-05 18:01 39.21033 -11.01099 39142 ft 420 kts 221°
2026-05-05 18:02 39.16375 -11.05644 39148 ft 420 kts 220°
2026-05-05 18:02 39.12469 -11.09443 39149 ft 420 kts 220°
2026-05-05 18:03 39.07051 -11.14712 39153 ft 420 kts 221°
2026-05-05 18:03 39.02391 -11.19238 39146 ft 420 kts 220°
2026-05-05 18:04 38.97731 -11.23759 39152 ft 420 kts 220°
2026-05-05 18:04 38.93069 -11.28274 39152 ft 419 kts 220°
2026-05-05 18:05 38.88409 -11.32783 39150 ft 419 kts 220°
2026-05-05 18:05 38.83745 -11.37289 39152 ft 420 kts 220°
2026-05-05 18:06 38.79074 -11.41780 39140 ft 420 kts 220°
2026-05-05 18:06 38.74440 -11.46235 39149 ft 420 kts 220°
2026-05-05 18:07 38.69768 -11.50717 39156 ft 420 kts 220°
2026-05-05 18:07 38.65095 -11.55196 39160 ft 420 kts 220°
2026-05-05 18:08 38.60420 -11.59665 39160 ft 419 kts 220°
2026-05-05 18:08 38.55752 -11.64134 39167 ft 419 kts 220°
2026-05-05 18:09 38.51079 -11.68600 39152 ft 419 kts 220°
2026-05-05 18:09 38.46405 -11.73046 39160 ft 419 kts 220°
2026-05-05 18:10 38.41733 -11.77489 39166 ft 419 kts 220°
2026-05-05 18:10 38.37847 -11.81174 39169 ft 419 kts 220°
2026-05-05 18:11 38.33171 -11.85598 39171 ft 419 kts 220°
2026-05-05 18:11 38.28495 -11.90016 39152 ft 419 kts 220°
2026-05-05 18:12 38.23821 -11.94427 39162 ft 418 kts 220°
2026-05-05 18:12 38.19151 -11.98830 39167 ft 418 kts 220°
2026-05-05 18:13 38.14481 -12.03224 39167 ft 417 kts 220°
2026-05-05 18:13 38.09813 -12.07615 39170 ft 418 kts 220°
2026-05-05 18:14 38.05175 -12.11978 39166 ft 418 kts 220°
2026-05-05 18:14 38.00499 -12.16361 39158 ft 418 kts 220°
2026-05-05 18:15 37.95819 -12.20733 39164 ft 418 kts 220°
2026-05-05 18:15 37.91148 -12.25097 39174 ft 417 kts 220°
2026-05-05 18:16 37.86469 -12.29454 39176 ft 417 kts 220°
2026-05-05 18:16 37.81793 -12.33802 39184 ft 417 kts 220°
2026-05-05 18:17 37.77116 -12.38151 39183 ft 417 kts 220°
2026-05-05 18:17 37.72435 -12.42488 39181 ft 417 kts 220°
2026-05-05 18:18 37.67779 -12.46790 39173 ft 418 kts 220°
2026-05-05 18:18 37.63094 -12.51133 39177 ft 418 kts 220°
2026-05-05 18:19 37.58404 -12.55467 39175 ft 418 kts 220°
2026-05-05 18:19 37.53706 -12.59789 39176 ft 418 kts 220°
2026-05-05 18:20 37.49006 -12.64116 39169 ft 418 kts 220°
2026-05-05 18:20 37.44371 -12.68369 39141 ft 411 kts 220°
2026-05-05 18:21 37.39827 -12.72540 39167 ft 399 kts 220°
2026-05-05 18:21 37.35405 -12.76591 39165 ft 388 kts 220°
2026-05-05 18:22 37.31097 -12.80532 39168 ft 378 kts 220°
2026-05-05 18:22 37.26899 -12.84373 39168 ft 369 kts 220°
2026-05-05 18:23 37.22832 -12.88088 39166 ft 360 kts 220°
2026-05-05 18:23 37.18829 -12.91730 39167 ft 351 kts 220°
2026-05-05 18:24 37.14917 -12.95286 39167 ft 343 kts 220°
2026-05-05 18:24 37.11101 -12.98756 39167 ft 335 kts 220°
2026-05-05 18:25 37.07275 -13.02159 39169 ft 342 kts 220°
2026-05-05 18:25 37.03383 -13.05723 39169 ft 351 kts 220°
2026-05-05 18:26 36.99383 -13.09387 39172 ft 361 kts 220°
2026-05-05 18:26 36.95264 -13.13120 39171 ft 370 kts 220°
2026-05-05 18:27 36.91037 -13.16930 39171 ft 380 kts 220°
2026-05-05 18:27 36.86727 -13.20809 39169 ft 389 kts 220°
2026-05-05 18:28 36.80028 -13.26836 39169 ft 402 kts 220°
2026-05-05 18:28 36.75439 -13.30959 39169 ft 411 kts 219°
2026-05-05 18:29 36.70756 -13.35151 39159 ft 418 kts 219°
2026-05-05 18:29 36.65997 -13.39410 39169 ft 424 kts 219°
2026-05-05 18:30 36.61170 -13.43730 39169 ft 429 kts 219°
2026-05-05 18:30 36.56300 -13.48079 39169 ft 432 kts 219°
2026-05-05 18:31 36.51417 -13.52426 39171 ft 435 kts 219°
2026-05-05 18:31 36.46481 -13.56815 39170 ft 437 kts 219°
2026-05-05 18:32 36.41535 -13.61212 39173 ft 437 kts 219°
2026-05-05 18:32 36.36575 -13.65616 39167 ft 438 kts 219°
2026-05-05 18:33 36.31600 -13.70010 39168 ft 439 kts 219°
2026-05-05 18:33 36.26642 -13.74382 39165 ft 440 kts 219°
2026-05-05 18:34 36.21658 -13.78786 39159 ft 440 kts 219°
2026-05-05 18:34 36.16668 -13.83186 39153 ft 440 kts 219°
2026-05-05 18:35 36.11677 -13.87582 39155 ft 440 kts 219°
2026-05-05 18:35 36.06682 -13.91968 39157 ft 440 kts 219°
2026-05-05 18:36 36.01687 -13.96353 39162 ft 440 kts 219°
2026-05-05 18:36 35.96723 -14.00702 39159 ft 440 kts 219°
2026-05-05 18:37 35.91723 -14.05068 39166 ft 440 kts 219°
2026-05-05 18:37 35.86716 -14.09432 39149 ft 440 kts 219°
2026-05-05 18:38 35.81712 -14.13791 39162 ft 440 kts 219°
2026-05-05 18:38 35.76704 -14.18146 39165 ft 440 kts 219°
2026-05-05 18:39 35.71698 -14.22502 39168 ft 440 kts 219°
2026-05-05 18:39 35.66684 -14.26844 39168 ft 440 kts 219°
2026-05-05 18:40 35.61694 -14.31155 39159 ft 440 kts 219°
2026-05-05 18:40 35.56687 -14.35497 39166 ft 440 kts 219°
2026-05-05 18:41 35.51674 -14.39823 39168 ft 440 kts 219°
2026-05-05 18:41 35.46658 -14.44134 39171 ft 440 kts 219°
2026-05-05 18:42 35.41647 -14.48455 39173 ft 440 kts 219°
2026-05-05 18:42 35.36630 -14.52778 39168 ft 440 kts 219°
2026-05-05 18:43 35.31612 -14.57081 39168 ft 440 kts 218°
2026-05-05 18:43 35.26585 -14.61357 39173 ft 440 kts 218°
2026-05-05 18:44 35.21549 -14.65620 39182 ft 440 kts 218°
2026-05-05 18:44 35.16535 -14.69857 39182 ft 440 kts 218°
2026-05-05 18:45 35.11503 -14.74124 39179 ft 440 kts 218°
2026-05-05 18:45 35.06473 -14.78390 39181 ft 440 kts 218°
2026-05-05 18:46 35.01438 -14.82648 39182 ft 440 kts 218°
2026-05-05 18:46 34.96393 -14.86891 39182 ft 441 kts 218°
2026-05-05 18:47 34.91341 -14.91126 39180 ft 441 kts 218°
2026-05-05 18:47 34.86292 -14.95362 39184 ft 441 kts 218°
2026-05-05 18:48 34.81270 -14.99573 39157 ft 441 kts 218°
2026-05-05 18:48 34.76219 -15.03811 39170 ft 441 kts 218°
2026-05-05 18:49 34.71169 -15.08041 39179 ft 441 kts 218°
2026-05-05 18:49 34.66113 -15.12258 39176 ft 441 kts 218°
2026-05-05 18:50 34.61055 -15.16471 39182 ft 441 kts 218°
2026-05-05 18:50 34.55994 -15.20690 39175 ft 441 kts 218°
2026-05-05 18:51 34.50932 -15.24891 39170 ft 441 kts 218°
2026-05-05 18:51 34.45868 -15.29092 39176 ft 441 kts 218°
2026-05-05 18:52 34.40807 -15.33288 39180 ft 441 kts 218°
2026-05-05 18:52 34.35748 -15.37481 39176 ft 441 kts 218°
2026-05-05 18:53 34.30695 -15.41656 38912 ft 436 kts 218°
2026-05-05 18:53 34.28194 -15.43716 37970 ft 435 kts 218°
2026-05-05 18:53 34.25689 -15.45777 36926 ft 435 kts 218°
2026-05-05 18:54 34.23183 -15.47841 35925 ft 436 kts 218°
2026-05-05 18:54 34.20672 -15.49905 34922 ft 437 kts 217°
2026-05-05 18:54 34.18155 -15.51971 33877 ft 438 kts 217°
2026-05-05 18:54 34.15633 -15.54047 32729 ft 439 kts 217°
2026-05-05 18:55 34.13115 -15.56124 32312 ft 440 kts 217°
2026-05-05 18:55 34.10576 -15.58221 32049 ft 444 kts 217°
2026-05-05 18:55 34.08022 -15.60322 31792 ft 445 kts 217°
2026-05-05 18:55 34.05456 -15.62429 31542 ft 446 kts 217°
2026-05-05 18:56 34.02885 -15.64538 31293 ft 447 kts 217°
2026-05-05 18:56 34.00304 -15.66652 31045 ft 449 kts 217°
2026-05-05 18:56 33.97719 -15.68763 30801 ft 450 kts 217°
2026-05-05 18:56 33.95134 -15.70872 30626 ft 448 kts 217°
2026-05-05 18:57 33.92592 -15.72943 30734 ft 446 kts 217°
2026-05-05 18:57 33.90028 -15.75034 30858 ft 445 kts 217°
2026-05-05 18:57 33.84899 -15.79215 30223 ft 443 kts 217°
2026-05-05 18:58 33.82347 -15.81292 29213 ft 443 kts 217°
2026-05-05 18:58 33.79777 -15.83384 28926 ft 449 kts 217°
2026-05-05 18:58 33.77177 -15.85500 28572 ft 452 kts 217°
2026-05-05 18:58 33.74567 -15.87620 27997 ft 454 kts 217°
2026-05-05 18:59 33.71941 -15.89752 27451 ft 456 kts 217°
2026-05-05 18:59 33.69307 -15.91892 26898 ft 459 kts 217°
2026-05-05 18:59 33.66656 -15.94047 26357 ft 462 kts 217°
2026-05-05 18:59 33.63987 -15.96211 25805 ft 465 kts 217°
2026-05-05 19:00 33.61300 -15.98383 25257 ft 467 kts 217°
2026-05-05 19:00 33.58598 -16.00567 24684 ft 470 kts 217°
2026-05-05 19:00 33.55879 -16.02764 24104 ft 471 kts 217°
2026-05-05 19:00 33.53199 -16.04927 23471 ft 470 kts 217°
2026-05-05 19:01 33.50493 -16.07109 22846 ft 467 kts 217°
2026-05-05 19:01 33.47806 -16.09274 22247 ft 464 kts 217°
2026-05-05 19:01 33.45135 -16.11424 21639 ft 461 kts 217°
2026-05-05 19:01 33.43340 -16.12866 21241 ft 459 kts 216°
2026-05-05 19:02 33.39846 -16.15670 20440 ft 454 kts 216°
2026-05-05 19:02 33.37234 -16.17767 19860 ft 451 kts 216°
2026-05-05 19:02 33.34640 -16.19852 19397 ft 448 kts 216°
2026-05-05 19:02 33.32059 -16.21929 19106 ft 445 kts 216°
2026-05-05 19:03 33.29554 -16.23937 18263 ft 424 kts 216°
2026-05-05 19:03 33.27910 -16.25252 17315 ft 419 kts 216°
2026-05-05 19:03 33.25459 -16.27219 16756 ft 427 kts 216°
2026-05-05 19:03 33.23022 -16.29177 16500 ft 428 kts 216°
2026-05-05 19:04 33.20511 -16.31190 16097 ft 430 kts 216°
2026-05-05 19:04 33.18035 -16.33171 15466 ft 427 kts 216°
2026-05-05 19:04 33.15572 -16.35143 15045 ft 426 kts 216°
2026-05-05 19:04 33.13111 -16.37109 14374 ft 423 kts 216°
2026-05-05 19:05 33.10698 -16.39032 13434 ft 423 kts 215°
2026-05-05 19:05 33.08264 -16.40968 12581 ft 418 kts 216°
2026-05-05 19:05 33.05858 -16.42880 11907 ft 413 kts 215°
2026-05-05 19:05 33.03467 -16.44779 11652 ft 413 kts 214°
2026-05-05 19:06 33.01081 -16.46677 11403 ft 412 kts 215°
2026-05-05 19:06 32.98699 -16.48574 11140 ft 412 kts 215°
2026-05-05 19:06 32.96319 -16.50468 10755 ft 410 kts 214°
2026-05-05 19:06 32.93949 -16.52352 10268 ft 408 kts 214°
2026-05-05 19:07 32.91589 -16.54227 10072 ft 408 kts 214°
2026-05-05 19:07 32.89232 -16.56095 9853 ft 406 kts 215°
2026-05-05 19:07 32.86949 -16.57899 8902 ft 385 kts 214°
2026-05-05 19:07 32.84815 -16.59759 7615 ft 375 kts 223°
2026-05-05 19:08 32.82945 -16.61750 7222 ft 343 kts 221°
2026-05-05 19:08 32.81065 -16.63251 7088 ft 311 kts 206°
2026-05-05 19:08 32.79138 -16.64131 6966 ft 283 kts 199°
2026-05-05 19:08 32.77328 -16.64870 6566 ft 269 kts 199°
2026-05-05 19:09 32.75512 -16.65608 5446 ft 284 kts 199°
2026-05-05 19:09 32.73595 -16.66386 4207 ft 298 kts 197°
2026-05-05 19:09 32.71632 -16.67182 3522 ft 291 kts 195°
2026-05-05 19:09 32.69812 -16.67927 3396 ft 263 kts 195°
2026-05-05 19:10 32.68165 -16.68599 3265 ft 239 kts 196°
2026-05-05 19:10 32.66658 -16.69211 3139 ft 220 kts 194°
2026-05-05 19:10 32.65259 -16.69782 3022 ft 205 kts 195°
2026-05-05 19:10 32.63980 -16.70311 2899 ft 185 kts 198°
2026-05-05 19:11 32.62888 -16.71022 2773 ft 176 kts 215°
2026-05-05 19:11 32.61992 -16.72005 2372 ft 178 kts 231°
2026-05-05 19:11 32.61351 -16.73198 2257 ft 166 kts 246°
2026-05-05 19:11 32.60970 -16.74469 2172 ft 163 kts 261°
2026-05-05 19:12 32.60840 -16.75787 2100 ft 160 kts 276°
2026-05-05 19:12 32.60962 -16.77085 2039 ft 157 kts 289°
2026-05-05 19:12 32.61322 -16.78285 1923 ft 152 kts 307°
2026-05-05 19:12 32.61939 -16.79245 1710 ft 143 kts 324°
2026-05-05 19:13 32.62725 -16.79915 1511 ft 137 kts 341°
2026-05-05 19:13 32.63618 -16.80286 1332 ft 134 kts 357°
2026-05-05 19:13 32.64533 -16.80354 1155 ft 132 kts
2026-05-05 19:13 32.65454 -16.80351 989 ft 133 kts
2026-05-05 19:14 32.66384 -16.80360 812 ft 132 kts
2026-05-05 19:14 32.67272 -16.80151 650 ft 132 kts 25°
2026-05-05 19:14 32.68031 -16.79549 443 ft 131 kts 44°
2026-05-05 19:14 32.68642 -16.78745 294 ft 131 kts 37°
2026-05-05 19:15 32.69300 -16.78019 179 ft 128 kts 42°
2026-05-05 19:15 32.69859 -16.77374 177 ft 80 kts 44°
2026-05-05 19:15 32.70098 -16.77085 176 ft 35 kts 44°
2026-05-05 19:15 32.70247 -16.76912 176 ft 29 kts 46°
2026-05-05 19:16 32.70377 -16.76821 176 ft 20 kts 19°
2026-05-05 19:16 32.70387 -16.76746 176 ft 1 kts 178°
2026-05-05 19:16 32.70347 -16.76792 176 ft 22 kts 227°
2026-05-05 19:16 32.70245 -16.76911 176 ft 20 kts 224°
2026-05-05 19:17 32.70155 -16.77019 176 ft 18 kts 224°
2026-05-05 19:17 32.70063 -16.77125 176 ft 20 kts 224°
2026-05-05 19:17 32.69956 -16.77178 176 ft 16 kts 181°
2026-05-05 19:17 32.69848 -16.77186 176 ft 15 kts 198°
2026-05-05 19:18 32.69771 -16.77262 176 ft 14 kts 226°
2026-05-05 19:18 32.69703 -16.77344 176 ft 13 kts 226°
2026-05-05 19:18 32.69640 -16.77423 176 ft 13 kts 226°
2026-05-05 19:18 32.69581 -16.77497 176 ft 12 kts 226°
2026-05-05 19:19 32.69546 -16.77540 176 ft 0 kts 226°
2026-05-05 19:19 32.69545 -16.77542 176 ft 2 kts 226°
2026-05-05 19:19 32.69504 -16.77594 176 ft 10 kts 227°
2026-05-05 19:20 32.69465 -16.77585 176 ft 6 kts 136°
2026-05-05 19:20 32.69442 -16.77560 176 ft 3 kts 139°
2026-05-05 19:20 32.69438 -16.77556 176 ft 0 kts 139°
2026-05-05 19:22 32.80121 -16.63725 7026 ft 297 kts 200°
2026-05-05 19:22 32.78250 -16.64494 6821 ft 275 kts 199°
2026-05-05 19:23 32.66012 -16.80352 876 ft 134 kts
2026-05-05 19:23 32.66928 -16.80296 724 ft 130 kts 15°
2026-05-05 19:23 32.67749 -16.79828 529 ft 132 kts 37°
2026-05-05 19:23 32.68382 -16.79051 371 ft 131 kts 45°
2026-05-05 19:24 32.69046 -16.78322 211 ft 130 kts 43°
2026-05-05 19:24 32.69655 -16.77607 177 ft 113 kts 44°
2026-05-05 19:24 32.70018 -16.77181 176 ft 50 kts 46°
2026-05-05 19:24 32.70189 -16.76979 176 ft 30 kts 44°
2026-05-05 19:25 32.69438 -16.77556 177 ft 0 kts 139°